User: anonymous   Login
Location: Arbon
(43.0005°N, 0.7472°E)
Time: 03:10:42
(UTC+00:00)
Language:

S-56A Canister/Altair - Orbit

View from above orbital plane
View from above orbital plane
View from above satellite
View from above satellite

Ground track
Ground track

The orbit data is extracted from the following two-line orbital elements,

1 00082U 61004B   21209.22085281 -.00000125  00000-0 -76638-4 0  9997
2 00082  38.8629 135.8728 1176614 241.9458 105.7401 12.26029261857617
Epoch (UTC): 28 July 2021 05:18:01
Eccentricity: 0.1176614
inclination: 38.8629°
perigee height: 631 km
apogee height: 2501 km
right ascension of ascending node: 135.8728°
argument of perigee: 241.9458°
revolutions per day: 12.26029261
mean anomaly at epoch: 105.7401°
orbit number at epoch: 85761

The dashed part of the orbit path shows where the satellite is in the earth's shadow,  

DLR